THORAD DELTA 1 DEB, 8172

Orbit data source: Space-Track

THORAD DELTA 1 DEB, 8172 is space debris in SSO originally from a launch on Fri, 15 Nov 1974 UTC launched from the Air Force Western Test Range (AFWTR). Debris objects in space refer to the collection of defunct objects orbiting the Earth. Examples of debris include non-operational satellites, rocket bodies, and fragments generated from explosions, collisions, or faulty payload assembly.

Loading next visibility...
Identifier
8172, 1974-089AN
Orbit
SSO
Country
Flag of USUS
Related business
Manufacturer
Unknown
Mission
Spacecraft
Bus & Motor
Unknown
Mass
Unknown
Launch date (UTC)
1974-11-15 (51 years ago)
Launch vehicle
Unknown
Launch site
Air Force Western Test Range (AFWTR)
Object type
Payload
Rocket body
Debris
Shape & HBR
Unknown
Radar Cross Section
Medium (>0.1 m² and <1 m²)

Expand to show TLE details & history
Last TLE update: 10 hours ago

TLE from 10 hours ago
0 THORAD DELTA 1 DEB
1 08172U 74089AN  25242.89131207 -.00000039  00000-0  51044-4 0  9993
2 08172 101.9931 252.5625 0052783 286.7659 145.3025 12.54921777326409
Epoch: 2025-08-30T21:23Z
TLE epoch observation values (Epoch: 2025-08-30T21:23:29.362Z)
Latitude
68.89593°
Longitude
-80.83952°
Altitude
1,489.744 km
Speed
7.11 km/s
True Right ascension
14h 37m 24s
True Declination
68° 47' 27"
Sunlit
Object was in daylight at epoch
Visualization orbit readout
Latitude
Unknown
Longitude
Unknown
Altitude
Unknown
Speed
Unknown
Apparent Right ascension
Unknown
Apparent Declination
Unknown
Sunlit
N/A
Visualization observer readout
Local Sidereal Time
22:51:32
Azimuth
Unknown
Elevation
Unknown
Doppler factor
Unknown
Orbital elements
Apogee altitude
1,482.805 km
Perigee altitude
1,400.256 km
Semi-major axis
7,819.667 km
Eccentricity
0.00528
Inclination
101.9931°
RAAN
252.5625°
Arg. of periapsis
286.7659°
True anomaly
145.64495°
Mean anomaly
145.3025°
Eccentric anomaly
145.47391°
Mean motion
3.13878 °/min
Orbital period
114.69 mins
BSTAR
0.000051044
Loading maneuver chart data...
Computing Atmospheric mass density...
Loading historical data...
Loading historical data...
Loading historical data...
Loading historical data...
Loading historical data...
Loading historical data...
Loading historical data...

Documentation

Showing up to 5 results
|